[[{"header":{"parameterUnit":"m.s-1","parameterCategory":1,"la1":30.2991,"la2":30.254,"lo1":-89.0895,"lo2":-89.0444,"dy":0.0017,"dx":0.0017,"nx":28,"ny":28,"refTime":"2024-12-11T03:00:00:Z","depth":0,"parameterNumber":2,"parameterNumberName":"U-component_of_WINDS"},"data":[0,0,0,0,0,0,0,0,0,0,0,0,0,0,0,0,0,0,0,0,0,0,0,0,0,0,0,0,0,0,0,0,0,0,0,0,0,0,0,0,0,0,0,0,0,0,0,0,0,0,0,0,0,0,0,0,0,0,2.1905,2.1905,0,2.1843,2.1843,2.1842,2.1731,2.1729,2.1727,2.1725,2.1667,2.1668,2.1668,0,0,0,0,0,0,0,0,0,0,0,0,0,2.1933,2.1933,2.1905,2.1905,2.1904,2.1844,2.1843,2.1842,2.1732,2.1729,2.1726,2.1724,2.1667,2.1668,2.1668,0,0,0,0,0,0,0,0,0,0,0,0,0,2.1902,2.1934,2.1905,2.1841,2.1835,2.1844,2.1843,2.1842,2.1732,2.1729,2.1726,2.1723,2.1667,2.1668,2.1668,2.1736,0,0,2.167,2.167,0,0,0,0,0,0,0,0,2.1904,2.1901,2.1852,2.1846,2.1839,2.1792,2.1831,2.1806,2.1733,2.1771,2.1725,2.1721,2.1712,2.1708,2.1704,2.1733,2.1731,2.167,2.1671,2.1671,2.1671,0,0,0,0,0,0,0,2.1906,2.1903,2.1881,2.1851,2.1843,2.1817,2.1809,2.1826,2.176,2.1768,2.176,2.1753,2.1707,2.1704,2.1702,2.173,2.167,2.1671,2.1671,2.1671,2.1814,2.1817,0,0,0,0,0,0,2.1917,2.1905,2.1883,2.1879,2.1864,2.182,2.1811,2.181,2.176,2.1749,2.1756,2.1749,2.1704,2.1701,2.1699,2.1777,2.1671,2.1672,2.1672,2.181,2.1815,2.1818,0,0,0,0,0,0,2.1918,2.1916,2.1885,2.189,2.1884,2.1822,2.1823,2.1811,2.1806,2.1751,2.1739,2.1764,2.1701,2.1698,2.1728,2.1773,2.1672,2.1672,2.1807,2.1812,2.1816,2.1932,0,0,0,0,0,0,2.1919,2.1917,2.1941,2.1891,2.1884,2.1914,2.1825,2.1812,2.1807,2.1797,2.1755,2.1745,2.1699,2.1727,2.1728,2.1772,2.1673,2.1802,2.1809,2.1815,2.1924,2.194,2.1954,0,0,0,0,0,2.192,2.1977,2.1942,2.194,2.1912,2.1916,2.1913,2.1856,2.1811,2.1836,2.18,2.1747,2.1768,2.1731,2.1732,2.1776,2.1799,2.1807,2.1814,2.1917,2.1937,2.1954,0,0,0,0,0,0,2.2035,2.1969,2.193,2.1972,2.195,2.1898,2.1927,2.1879,2.1871,2.1862,2.1794,2.1785,2.1824,2.1803,2.1763,2.184,2.1775,2.1783,2.1853,2.1872,2.1887,2.1892,2.1674,0,0,0,0,0,2.2065,2.2071,2.2014,2.2056,2.2047,2.1989,2.1989,2.1947,2.1923,2.1914,2.188,2.1861,2.1862,2.1866,2.1864,2.1919,2.191,2.1951,2.1966,2.1979,2.1987,2.2016,2.2034,2.1843,2.1843,2.1843,0,0,2.2127,2.2091,2.21,2.2078,2.2057,2.2067,2.1982,2.1997,2.2005,2.1916,2.1942,2.1917,2.189,2.1934,2.1951,2.1917,2.2038,2.1988,2.1999,2.2,2.2026,2.2044,2.2061,2.1848,2.1847,2.1847,0,0,2.2246,2.2219,2.2251,2.2231,2.2199,2.216,2.2168,2.2123,2.2102,2.2126,2.2061,2.207,2.2075,2.2059,2.2051,2.2165,2.2116,2.2166,2.2247,2.2277,2.2292,2.2305,2.2347,2.2363,2.2175,2.2175,2.2175,0,2.2328,2.2339,2.2275,2.2294,2.2287,2.2205,2.2239,2.2224,2.2194,2.2192,2.2154,2.2158,2.2135,2.2174,2.2201,2.2197,2.2206,2.2172,2.2294,2.2307,2.2318,2.2358,2.2374,2.2181,2.2181,2.218,2.2179,0,2.2442,2.2452,2.2482,2.2454,2.245,2.2477,2.2419,2.2423,2.2382,2.2347,2.2374,2.2343,2.2334,2.234,2.23,2.2374,2.2354,2.2306,2.224,2.2344,2.238,2.2395,2.2191,2.2188,2.2186,2.2185,0,0,2.2633,2.2568,2.2581,2.2567,2.2526,2.2533,2.2556,2.2546,2.2552,2.2535,2.2554,2.256,2.2515,2.2507,2.2465,2.2491,2.2585,2.2439,2.2438,2.2469,2.2666,2.2704,2.2723,2.2551,2.2554,2.2556,2.2669,0,2.2745,2.2779,2.2722,2.2771,2.278,2.2703,2.2724,2.2702,2.2671,2.2675,2.2641,2.2647,2.2586,2.2581,2.2603,2.2569,2.2624,2.2559,2.2571,2.2573,2.2582,2.2741,2.2781,2.289,2.2683,2.2685,2.2687,0,2.288,2.2867,2.2917,2.2873,2.2874,2.2894,2.2881,2.2885,2.2859,2.2835,2.2826,2.2775,2.2797,2.2732,2.2763,2.272,2.2722,2.2706,2.2709,2.2709,2.2638,2.2749,2.2923,2.294,2.2708,2.2707,2.2705,0,2.3016,2.3012,2.3041,2.3031,2.2981,2.2997,2.2977,2.2947,2.2945,2.2934,2.2933,2.2925,2.2922,2.2918,2.2868,2.2824,2.2906,2.2836,2.2888,2.289,2.2911,2.291,2.309,2.2908,2.2908,2.2908,2.2908,0,2.3148,2.3182,2.3101,2.312,2.3156,2.3091,2.3129,2.3102,2.3076,2.309,2.3022,2.3037,2.2968,2.2976,2.2936,2.2969,2.2968,2.295,2.294,2.2957,2.296,2.2959,2.2951,2.2912,2.2911,2.291,2.291,0,2.3308,2.3255,2.3282,2.3231,2.3219,2.3248,2.3206,2.3222,2.3185,2.3203,2.3204,2.3148,2.3153,2.3102,2.3098,2.3072,2.3124,2.3099,2.3132,2.3125,2.3182,2.3178,2.3369,2.3391,2.3194,2.3196,2.3197,0,2.3396,2.342,2.3372,2.3375,2.3358,2.3363,2.3361,2.3298,2.3298,2.3271,2.3291,2.329,2.3287,2.3299,2.326,2.3257,2.3233,2.33,2.3232,2.3249,2.3236,2.3236,2.324,2.3315,2.3317,2.3319,2.3321,0,2.356,2.3532,2.353,2.3519,2.3517,2.3506,2.3491,2.3498,2.3429,2.3434,2.3437,2.3434,2.3429,2.3431,2.342,2.3401,2.3351,2.3342,2.3354,2.3374,2.3393,2.3385,2.3173,2.3339,2.3337,2.3335,2.3334,2.3334,2.3688,2.3706,2.3675,2.3675,2.3656,2.3644,2.3656,2.3621,2.3623,2.3613,2.3576,2.3587,2.3561,2.3541,2.3527,2.3536,2.3504,2.3522,2.3526,2.3532,2.3544,2.339,2.3534,2.3533,2.3533,2.3532,2.3532,0,2.385,2.3826,2.3826,2.3806,2.3807,2.3756,2.3737,2.3742,2.3751,2.3731,2.3728,2.3734,2.3734,2.3695,2.3691,2.3706,2.3683,2.3707,2.3707,2.3704,2.3571,2.3562,2.3726,2.3726,2.3726,2.3726,2.3726,2.3726,2.3934,2.3963,2.3932,2.3952,2.3927,2.3936,2.393,2.3918,2.3902,2.391,2.391,2.3883,2.3856,2.3849,2.3849,2.3837,2.384,2.3873,2.3854,2.3732,2.3713,2.3695,2.3686,2.3873,2.3874,2.3986,2.3987,2.3988]},{"header":{"parameterUnit":"m.s-1","parameterCategory":1,"la1":30.2991,"la2":30.254,"lo1":-89.0895,"lo2":-89.0444,"dy":0.0017,"dx":0.0017,"nx":28,"ny":28,"refTime":"2024-12-11T03:00:00:Z","depth":0,"parameterNumber":3,"parameterNumberName":"V-component_of_WINDS"},"data":[0,0,0,0,0,0,0,0,0,0,0,0,0,0,0,0,0,0,0,0,0,0,0,0,0,0,0,0,0,0,0,0,0,0,0,0,0,0,0,0,0,0,0,0,0,0,0,0,0,0,0,0,0,0,0,0,0,0,4.8063,4.8061,0,4.7862,4.786,4.7858,4.7698,4.7696,4.7695,4.7693,4.7481,4.7477,4.7473,0,0,0,0,0,0,0,0,0,0,0,0,0,4.83,4.8297,4.8064,4.8061,4.8059,4.7863,4.786,4.7857,4.7698,4.7696,4.7694,4.7693,4.7482,4.7477,4.7472,0,0,0,0,0,0,0,0,0,0,0,0,0,4.8158,4.8296,4.8064,4.7956,4.7944,4.7863,4.786,4.7856,4.7699,4.7696,4.7694,4.7692,4.7484,4.7478,4.7472,4.748,0,0,4.7452,4.745,0,0,0,0,0,0,0,0,4.8166,4.815,4.7974,4.7963,4.795,4.7803,4.7865,4.773,4.7699,4.7792,4.7693,4.7691,4.759,4.7574,4.7542,4.747,4.7461,4.7452,4.7448,4.7445,4.7443,0,0,0,0,0,0,0,4.8176,4.8157,4.7984,4.7972,4.7957,4.7914,4.7891,4.7839,4.7706,4.7783,4.7771,4.775,4.7582,4.7548,4.7535,4.7458,4.7452,4.7446,4.7443,4.744,4.7374,4.7376,0,0,0,0,0,0,4.8204,4.8167,4.799,4.7978,4.8055,4.7912,4.7886,4.7852,4.7706,4.7682,4.7752,4.7743,4.756,4.7543,4.7527,4.7522,4.7445,4.7439,4.7436,4.7372,4.7375,4.7377,0,0,0,0,0,0,4.821,4.819,4.7998,4.8069,4.8041,4.791,4.7873,4.785,4.7815,4.7683,4.7657,4.7742,4.7557,4.7536,4.7491,4.7513,4.7437,4.7431,4.737,4.7373,4.7376,4.7516,0,0,0,0,0,0,4.8217,4.8193,4.8198,4.807,4.8038,4.797,4.7875,4.7847,4.7806,4.7792,4.7667,4.7644,4.7554,4.7502,4.7485,4.7503,4.7426,4.7367,4.7371,4.7375,4.7509,4.7524,4.7536,0,0,0,0,0,4.8227,4.8245,4.8199,4.8178,4.8041,4.7971,4.7952,4.7851,4.7808,4.7809,4.7723,4.7648,4.7514,4.7499,4.7479,4.7495,4.7365,4.737,4.7374,4.7503,4.7521,4.7536,0,0,0,0,0,0,4.8378,4.8227,4.8174,4.8153,4.8076,4.7945,4.7944,4.7874,4.7807,4.7796,4.7671,4.7644,4.7611,4.7548,4.7534,4.7491,4.7429,4.743,4.7534,4.7549,4.7563,4.7578,4.7421,0,0,0,0,0,4.8409,4.8368,4.8237,4.823,4.8195,4.8076,4.8042,4.797,4.7885,4.7851,4.7762,4.768,4.7618,4.758,4.7517,4.7499,4.7466,4.7499,4.7513,4.7525,4.7526,4.7506,4.7518,4.7392,4.7392,4.7392,0,0,4.8473,4.8385,4.8367,4.8259,4.8191,4.8146,4.805,4.8009,4.7973,4.7844,4.7796,4.7727,4.7626,4.7594,4.7575,4.754,4.7554,4.7531,4.7541,4.7536,4.7512,4.7524,4.7535,4.7395,4.7394,4.7394,0,0,4.8566,4.8498,4.8482,4.8416,4.8314,4.8234,4.8231,4.8108,4.8058,4.8008,4.7908,4.7862,4.7761,4.7692,4.7643,4.7704,4.763,4.7687,4.7757,4.7739,4.7748,4.7757,4.7774,4.7782,4.7689,4.7689,4.769,0,4.8657,4.859,4.8483,4.8446,4.8399,4.828,4.826,4.82,4.8083,4.8052,4.8015,4.7881,4.7805,4.7752,4.7766,4.7733,4.772,4.77,4.7756,4.7763,4.7769,4.7784,4.7791,4.7697,4.7696,4.7695,4.7694,0,4.8704,4.8658,4.8657,4.8548,4.85,4.8473,4.8357,4.8322,4.8253,4.8175,4.8122,4.8027,4.7939,4.7921,4.7854,4.7856,4.7837,4.7781,4.7715,4.779,4.7802,4.7807,4.7707,4.7705,4.7702,4.7701,0,0,4.8888,4.8717,4.8718,4.8664,4.8542,4.8502,4.8467,4.8382,4.8352,4.8274,4.8237,4.8151,4.8096,4.8041,4.7964,4.7948,4.7996,4.7892,4.7887,4.7911,4.7987,4.8029,4.8038,4.7947,4.7947,4.7948,4.7994,0,4.8959,4.8892,4.8792,4.8755,4.8708,4.8592,4.856,4.8479,4.8405,4.8351,4.8267,4.8207,4.8141,4.8106,4.8085,4.7995,4.8009,4.7991,4.7907,4.7905,4.7934,4.8044,4.809,4.8138,4.7998,4.7999,4.7999,0,4.9033,4.8961,4.8921,4.8797,4.8773,4.8747,4.8658,4.861,4.8513,4.8459,4.8396,4.8312,4.8263,4.8205,4.8133,4.8122,4.8081,4.8031,4.803,4.8017,4.7956,4.8031,4.8152,4.8158,4.8006,4.8006,4.8005,0,4.9167,4.906,4.902,4.8978,4.8834,4.8817,4.8756,4.8657,4.8611,4.8532,4.8499,4.8417,4.837,4.8305,4.8198,4.8167,4.8135,4.807,4.8085,4.8088,4.8083,4.8085,4.8196,4.8062,4.8062,4.8062,4.8061,0,4.9254,4.9233,4.9078,4.9054,4.9024,4.8907,4.888,4.8807,4.8719,4.8675,4.8569,4.8529,4.8392,4.8334,4.825,4.8199,4.818,4.8132,4.8109,4.814,4.8146,4.811,4.8103,4.8063,4.8063,4.8063,4.8062,0,4.9399,4.9295,4.9243,4.911,4.9075,4.9059,4.8943,4.8912,4.883,4.8775,4.8755,4.8626,4.8552,4.8439,4.8332,4.8274,4.8236,4.8201,4.827,4.8256,4.8276,4.8275,4.8367,4.8371,4.8238,4.824,4.8241,0,4.9461,4.9441,4.9306,4.927,4.9212,4.9155,4.9107,4.899,4.8943,4.8828,4.881,4.8728,4.8656,4.8543,4.8436,4.8351,4.8311,4.8349,4.8298,4.8328,4.8307,4.8309,4.8304,4.8361,4.8363,4.8365,4.8366,0,4.958,4.9528,4.9465,4.9382,4.9328,4.9257,4.918,4.9155,4.9019,4.8972,4.8895,4.884,4.8728,4.8646,4.8546,4.8478,4.8398,4.8383,4.8381,4.8412,4.8451,4.8426,4.83,4.8382,4.838,4.8379,4.8378,4.8378,4.9682,4.9658,4.9558,4.9489,4.9418,4.9348,4.9311,4.9224,4.916,4.9061,4.8995,4.8921,4.8818,4.8675,4.8611,4.8548,4.8514,4.8513,4.8512,4.8513,4.8522,4.8463,4.8529,4.8529,4.8528,4.8528,4.8527,0,4.9793,4.9722,4.966,4.9556,4.95,4.9432,4.9342,4.9298,4.9236,4.9148,4.9079,4.8988,4.8907,4.8794,4.8702,4.8674,4.8634,4.8653,4.8653,4.8637,4.856,4.8569,4.8686,4.8686,4.8686,4.8686,4.8686,4.8686,4.9844,4.9798,4.9734,4.9649,4.9577,4.9506,4.946,4.9392,4.932,4.9225,4.9158,4.9085,4.8984,4.8884,4.8804,4.8772,4.8742,4.8772,4.8729,4.8658,4.8644,4.863,4.8637,4.8768,4.8768,4.8811,4.8811,4.8812]}]]